Weather History for CWKG - February, 2014

Change the Weather History Date:

Saturday, February 1, 2014

  Actual Average Record
Temperature  
Mean Temperature 30 °F -  
Max Temperature 38 °F - - ()
Min Temperature 21 °F - - ()
Degree Days  
Heating Degree Days 36    
Moisture  
Dew Point 23 °F    
Average Humidity 78    
Maximum Humidity 100    
Minimum Humidity 37    
Precipitation  
Precipitation 5.51 in - - ()
Sea Level Pressure  
Sea Level Pressure 30.24 in    
Wind  
Wind Speed 3 mph ()    
Max Wind Speed 6 mph    
Max Gust Speed -    
T = Trace of Precipitation, MM = Missing Value Source: Averaged Metar Reports

Daily Weather History Graph

Daily Weather History Graph

Search for Another Location

Airport or City:

Trip Planner

Search our weather history database for the weather conditions in past years. The results will help you decide how hot, cold, wet, or windy it might be!

Date:

Astronomy

Feb. 01, 2014 Rise Set
Actual Time 7:39 AM AST 5:30 PM AST
Civil Twilight 7:08 AM AST 6:01 PM AST
Nautical Twilight 6:33 AM AST 6:35 PM AST
Astronomical Twilight 5:59 AM AST 7:09 PM AST
Moon 8:19 AM AST (2/1) 8:08 PM AST (2/1)
Length of Visible Light 10h 52m
Length of Day
9h 50m
Waxing Crescent, 5% of the Moon is Illuminated
Feb 1
Waxing Crescent
Feb 6
First Quarter
Feb 14
Full
Feb 22
Last Quarter
Mar 1
New

Hourly Weather History & Observations

Time (AST) Temp. Windchill Dew Point Humidity Pressure Visibility Wind Dir Wind Speed Gust Speed Precip Events Conditions
12:00 AM 28.8 °F 25.0 °F 29.3 °F 100% 30.08 in - WSW 3.5 mph - N/A   Unknown
1:00 AM 28.4 °F - 29.3 °F 100% 30.09 in - WSW 2.3 mph - N/A   Unknown
2:00 AM 27 °F - 26 °F 95% 30.10 in - West 2.3 mph - -  
2:00 AM 27.0 °F - 26.1 °F 96% 30.10 in - West 2.3 mph - N/A   Unknown
3:00 AM 26.8 °F - 25.9 °F 96% 30.13 in - SSW 1.2 mph - N/A   Unknown
4:00 AM 25.7 °F - 24.6 °F 96% 30.15 in - West 2.3 mph - N/A   Unknown
5:00 AM 24.8 °F - 23.5 °F 95% 30.18 in - SW 2.3 mph - N/A   Unknown
6:00 AM 23.4 °F - 22.5 °F 96% 30.21 in - WSW 2.3 mph - N/A   Unknown
7:00 AM 22.5 °F - 21.9 °F 98% 30.23 in - WNW 2.3 mph - N/A   Unknown
8:00 AM 22 °F - 21 °F 95% 30.25 in - West 1.2 mph - -  
8:00 AM 21.9 °F - 21.2 °F 97% 30.25 in - West 1.2 mph - N/A   Unknown
9:00 AM 23.5 °F - 22.5 °F 96% 30.28 in - WNW 2.3 mph - N/A   Unknown
10:00 AM 28.4 °F - 24.1 °F 84% 30.30 in - West 1.2 mph - 0.02 in   Unknown
11:00 AM 34.3 °F 31.4 °F 21.9 °F 60% 30.33 in - West 3.5 mph - N/A   Unknown
12:00 PM 35.6 °F 31.7 °F 19.4 °F 52% 30.32 in - WSW 4.6 mph - 1.36 in   Unknown
1:00 PM 37.6 °F 35.1 °F 19.4 °F 48% 30.30 in - SW 3.5 mph - 1.81 in   Unknown
2:00 PM 37 °F - 20 °F 37% 30.30 in - SW 4.6 mph - -  
2:00 PM 37.2 °F 33.6 °F 22.1 °F 54% 30.30 in - SW 4.6 mph - 2.29 in   Unknown
3:00 PM 37.8 °F 35.3 °F 19.6 °F 48% 30.29 in - SW 3.5 mph - N/A   Unknown
4:00 PM 37.4 °F - 19.8 °F 49% 30.30 in - South 2.3 mph - N/A   Unknown
5:00 PM 34.3 °F 31.4 °F 22.5 °F 62% 30.31 in - South 3.5 mph - N/A   Unknown
6:00 PM 31.5 °F 26.8 °F 20.1 °F 63% 30.29 in - SE 4.6 mph - N/A   Unknown
7:00 PM 30.2 °F 24.3 °F 22.8 °F 74% 30.30 in - SSE 5.8 mph - N/A   Unknown
8:00 PM 29 °F - 22 °F 64% 30.27 in - SSE 4.6 mph - -  
8:00 PM 29.3 °F 24.3 °F 21.6 °F 73% 30.27 in - SSE 4.6 mph - N/A   Unknown
9:00 PM 28.2 °F 23.1 °F 22.1 °F 78% 30.26 in - SE 4.6 mph - N/A   Unknown
10:00 PM 28.8 °F 25.0 °F 23.5 °F 81% 30.23 in - SE 3.5 mph - N/A   Unknown
11:00 PM 30.0 °F 26.5 °F 25.5 °F 83% 30.22 in - SE 3.5 mph - N/A   Unknown